Regional Weather Roundup
Issued by NWS

Home | Current Version | Previous Version | Graphics & Text | Print | Product List | Glossary On
Versions: 1 2 3 4 5 6 7 8 9 10 11 12 13 14 15 16 17 18 19 20 21 22 23 24 25 26 27 28 29 30 31 32 33 34 35 36 37 38 39 40 41 42 43 44 45 46 47 48 49 50
390
ASUS43 KLOT 240009
RWRIL

ILLINOIS REGIONAL WEATHER ROUNDUP
NATIONAL WEATHER SERVICE CHICAGO/ROMEOVILLE IL
700 PM CDT MON OCT 23 2017

NOTE: "FAIR" INDICATES FEW OR NO CLOUDS BELOW 12,000 FEET WITH NO
SIGNIFICANT WEATHER AND/OR OBSTRUCTIONS TO VISIBILITY.

* THESE STATIONS ARE NOT UNDER NWS QUALITY CONTROL. THEY ALSO MAY NOT
  REPORT WEATHER SUCH AS PRECIPITATION OR FOG.

ILZ001-002-007-009-015-016-024-240100-
NORTHWEST ILLINOIS

CITY           SKY/WX    TMP DP  RH WIND       PRES   REMARKS
MOLINE         PTCLDY    54  45  71 W8        29.75F
6HR MIN TEMP:  54; 6HR MAX TEMP:  62; 6HR PCP: TRACE;

STERLING*      LGT RAIN  55  47  74 W17G24      N/A
SAVANNA*       CLOUDY    53  46  76 NW9       29.72F
$$

ILZ003-004-008-010-011-017-018-240100-
NORTH CENTRAL ILLINOIS

CITY           SKY/WX    TMP DP  RH WIND       PRES   REMARKS
ROCKFORD       CLOUDY    55  45  68 W8        29.68S
6HR MIN TEMP:  53; 6HR MAX TEMP:  55;

FREEPORT*      LGT RAIN  52  45  77 W15       29.71R
ROCHELLE*      CLOUDY    54  47  80 W9        29.69S
DE KALB*       CLOUDY    52  46  77 W10       29.68R
PERU*          DRIZZLE   54  46  75 W8        29.71R
$$

ILZ005-006-012>014-019>023-240100-
NORTHEAST ILLINOIS

CITY           SKY/WX    TMP DP  RH WIND       PRES   REMARKS
CHICAGO-OHARE  CLOUDY    53  44  71 W5        29.65F
6HR MIN TEMP:  53; 6HR MAX TEMP:  54;

CHICAGO-MIDWAY CLOUDY    53  49  86 W5        29.66F
6HR MIN TEMP:  53; 6HR MAX TEMP:  54; 6HR PCP:  0.02;

AURORA         CLOUDY    51  47  86 SW6       29.68F
6HR MIN TEMP:  50; 6HR MAX TEMP:  54;

LANSING*       CLOUDY    51  50  97 W6        29.68S
JOLIET*        CLOUDY    53  49  86 CALM      29.68S
WAUKEGAN       CLOUDY    50  48  93 CALM      29.64F
6HR MIN TEMP:  50; 6HR MAX TEMP:  53;

DUPAGE AIRPORT CLOUDY    50  46  86 CALM      29.65F
6HR MIN TEMP:  50; 6HR MAX TEMP:  53;

KANKAKEE*      CLOUDY    51  50  98 W6        29.71R
WHEELING       MOCLDY    53  47  79 VRB3      29.66F
6HR MIN TEMP:  53; 6HR MAX TEMP:  54;

MORRIS*        CLOUDY    51  47  86 SW3       29.68S
ROMEOVILLE*    CLOUDY    50  47  88 W5        29.68S
NORTHERLY ISL    N/A     53  48  83 W10         N/A
$$

LMZ740>746-240100-
SOUTHERN LAKE MICHIGAN

STATION/POSITION SKY/WX   TEMP    WIND        PRES    VSBY  WAVE
                          AIR SEA DIR/SP/G                  HT/PER
                          (F)     (DEG/KT/KT) (MB)    (MI)  (FT/S)
SOUTHERN BUOY              55 60  340/ 19/ 23 1003.0          3/ 5
WILMETTE HARBOR            53 57  280/  8/ 10   N/A           2/ 4
HARRISON CRIB              54     290/ 10/ 13   N/A
BURNHAM HARBOR             53     260/  6/ 14   N/A
CALUMET HARBOR                                1004.0R
BURNS HARBOR               54     280/ 16/ 19 1005.1R
MICHIGAN CITY              54     280/ 20/ 21   N/A
MICHIGAN CITY 6N           54 57  290/ 16/ 19   N/A           5/ 5
ST. JOSEPH                 56 58  340/ 17/ 23 1003.5          7/ 6
$$

ILZ025>027-034>036-040-047-049-050-058-095>099-240100-
WEST-CENTRAL ILLINOIS

CITY           SKY/WX    TMP DP  RH WIND       PRES   REMARKS
QUINCY         CLEAR     53  45  74 W6        29.82S
MACOMB*        CLOUDY    52  49  90 W6        29.81S
JACKSONVILLE*  CLOUDY    53  47  80 CALM      29.81R
PITTSFIELD*    MOCLDY    55  48  77 W5        29.84R
$$

ILZ028>032-037-038-041>044-048-051>054-059>061-240100-
CENTRAL ILLINOIS

CITY           SKY/WX    TMP DP  RH WIND       PRES   REMARKS
PONTIAC        CLOUDY    52  51  95 SW6       29.72R
BLOOMINGTON    CLOUDY    52  46  80 SW7       29.74
DECATUR        CLOUDY    52  48  86 CALM      29.75R
PEORIA         LGT RAIN  55  48  77 W10G23    29.76R
6HR MIN TEMP:  53; 6HR MAX TEMP:  64; 6HR PCP: TRACE;

LACON*         RAIN      55  48  76 W6        29.72R
LINCOLN*       CLOUDY    60  46  61 W9G17     29.74R
SPRINGFIELD    LGT RAIN  60  45  57 NW18G30   29.77R
6HR MIN TEMP:  56; 6HR MAX TEMP:  67; 6HR PCP: TRACE;

TAYLORVILLE    CLOUDY    59  45  59 W14G21    29.77R
6HR MIN TEMP:  52; 6HR MAX TEMP:  62;

$$

ILZ033-039-045-046-055>057-062-063-240100-
EAST-CENTRAL ILLINOIS

CITY           SKY/WX    TMP DP  RH WIND       PRES   REMARKS
CHAMPAIGN      MOCLDY    52  48  87 SW7       29.74R
DANVILLE*      CLOUDY    50  49  97 SW10      29.70R
RANTOUL*       CLOUDY    53  51  93 W6        29.72S
MATTOON        CLOUDY    52  52 100 SW7       29.74S
PARIS*         CLOUDY    51  50  99 SW9       29.75S
$$

ILZ079-100>102-240100-
SOUTHWEST ILLINOIS

CITY           SKY/WX    TMP DP  RH WIND       PRES   REMARKS
ALTON          CLOUDY    59  45  58 NW12G21   29.82R
BELLEVILLE     CLOUDY    62  43  49 NW14G20   29.79R
CAHOKIA*       CLOUDY    64  40  41 NW21G28   29.83R
SPARTA*        CLOUDY    62  48  60 W9        29.81R
$$

ILZ064>066-069>071-074>076-080>082-084>086-088>090-092>094-240100-
SOUTH-CENTRAL ILLINOIS

CITY           SKY/WX    TMP DP  RH WIND       PRES   REMARKS
CARBONDALE     CLOUDY    56  49  77 E3        29.79S
6HR MIN TEMP:  54; 6HR MAX TEMP:  65;

CAIRO*         CLEAR     59  49  67 S8        29.82S
EFFINGHAM*     CLOUDY    53  47  82 SE6       29.78S
MARION         PTCLDY    57  50  77 S9        29.81F
MT. VERNON     MOCLDY    55  50  83 S3        29.80S
CENTRALIA*     CLOUDY    58  51  78 S9        29.77F
SALEM*         MOCLDY    58  46  65 S5        29.77F
METROPOLIS*    CLEAR     57  46  66 S3        29.83F
$$

ILZ067-068-072-073-078-083-087-091-240100-
SOUTHEAST ILLINOIS

CITY           SKY/WX    TMP DP  RH WIND       PRES   REMARKS
LAWRENCEVILLE  LGT RAIN  52  50  93 S6        29.79R
FLORA*         CLOUDY    56  47  73 S6        29.79S
FAIRFIELD*     CLOUDY    53  47  79 S3        29.79S
HARRISBURG*    PTCLDY    51  47  85 S3        29.82S
ROBINSON*      CLOUDY    50  48  93 S5        29.78R
CARMI*         CLOUDY    52  46  82 S6        29.81R
$$

ABBREVIATIONS USED IN REMARKS
   TC - TEMPERATURE IN CELSIUS
  WCI - WIND CHILL INDEX
   HX - HEAT INDEX
  VSB - VISIBILITY
$$





USA.gov is the U.S. government's official web portal to all federal, state and local government web resources and services.